星链-1770 (STARLINK-1770 )

导读 | 豆包AI

STARLINK-1770是美国太空探索技术公司SpaceX旗下星链(Starlink)星座的一员,于2020年9月3日发射入轨。星链星座旨在通过部署近地轨道卫星群,为全球,尤其是基础设施匮乏地区,提供高速低延迟宽带互联网服务。STARLINK-1770的入轨助力星链不断扩展网络覆盖,推动全球卫星互联网组网进程。

基本信息
目录编号:
46383
目录名称:
STARLINK-1770
国际标识:
2020-062BL
轨道中心:
EARTH
卫星名称:
星链-1770
卫星全名:
星链-1770 (STARLINK-1770 )
卫星状态:
在轨 (已飞行2039 天)
发射日期:
2020-09-03 UTC
国别 :
美国 (US)
星等 :
--
轨道信息
数据来源 国际轨道数据 AOE轨道数据
星历时间 2026-04-03T21:25:38+0800
11小时前
查看轨道信息
2026-03-28T09:00:00+0800
6天前
查看轨道信息
半长轴 6743.128km 6746.393km
偏心率 0.0005983 0.0004947
轨道倾角 53.041° 53.041°
近地点辐角 355.075° 334.223°
升交点赤经 193.450° 225.551°
平近点角 5.021° 310.087°
近地点 360.956km 364.918km
远地点 369.026km 371.594km
周期 91.844分钟 91.911分钟
每日圈数 15.678725 15.667342
详细信息
固有亮度:
5
最大亮度:
2.5
卫星平台:
Starlink V1.0
覆盖范围:
全球
运营商:
太空探索技术公司
运营商所在国:
美国
制造商(研发单位):
太空探索技术公司
制造商所在国:
美国
使用方式:
暂无
卫星简介
星链(Starlink)计划是由太空探索技术公司(SpaceX)提出的一个巨型低轨卫星互联网星座项目,计划在2019年至2024年间在太空搭建由约1.2万颗卫星组成的“星链”网络,其中1584颗将部署在地球上空550千米处的近地轨道,并从2020年开始工作。该卫星仍在工作。
2D轨道图
3D轨道图
轨道高度分析图
轨道倾角分析图
轨道综合分析图
查看轨道综合分析图